Dewpoint
45 51 54 57 63 65 66 66 67 67 67 67 67 66 67 67 66 66 66 66 66 66 65 65 64 63 60 56 51 49 47 48
43 48 54 56 58 59 62 65 66 65 65 65 64 64 64 65 66 66 66 67 66 66 66 65 65 63 61 57 53 50 47 49
40 43 47 48 50 52 54 55 60 64 64 64 63 63 63 64 64 64 65 65 66 65 65 64 64 63 62 60 54 50 48 48
37 39 43 43 43 43 44 46 47 46 57 63 62 61 62 61 62 63 64 64 65 65 64 64 64 63 62 60 57 51 47 49
36 37 39 40 40 39 37 37 37 41 45 47 49 49 50 51 53 62 62 63 64 64 63 64 63 62 62 61 59 55 52 49
34 35 36 37 39 39 37 36 38 39 41 42 43 44 45 45 46 48 53 57 60 62 63 63 62 62 62 61 59 57 55 52
33 34 33 33 37 38 37 32 33 37 39 40 41 42 44 44 44 44 46 48 55 59 60 61 61 61 61 61 60 59 56 55
32 30 27 28 30 33 31 29 28 30 32 35 37 40 41 42 43 42 44 46 48 52 56 57 57 57 58 59 59 58 58 57
30 26 26 25 27 29 30 28 28 31 32 34 37 38 38 38 39 43 46 46 47 50 51 54 56 57 57 57 57 57 56 56
26 25 26 25 25 26 28 30 29 29 31 34 36 38 40 40 41 42 45 48 48 48 51 52 52 52 53 54 55 55 55 55
26 24 26 24 24 24 28 29 29 30 32 35 35 38 40 42 44 44 45 48 50 50 49 49 50 49 49 50 50 51 52 52
25 24 24 25 25 26 27 28 29 31 33 35 37 40 41 44 45 45 46 48 48 47 46 46 46 46 46 46 47 47 47 47
24 24 25 25 26 25 26 28 31 33 34 36 39 41 42 43 44 46 48 46 46 45 45 44 43 42 42 42 42 42 44 45
24 25 25 26 25 26 27 28 31 33 34 37 39 42 43 44 47 46 46 45 44 43 43 42 41 41 39 39 38 39 39 40
23 25 27 26 27 27 28 29 31 34 35 38 40 43 46 46 45 44 44 43 42 41 41 40 39 38 37 37 37 37 37 38
22 22 25 26 26 26 27 30 33 35 38 39 43 45 44 43 43 42 42 41 40 39 39 37 37 37 37 36 37 36 35 34
20 20 22 23 22 24 27 29 32 37 39 42 43 43 42 42 41 41 40 40 38 38 37 37 36 36 35 34 34 33 32 32
20 22 21 22 24 25 27 30 32 39 40 40 41 41 41 40 40 39 38 37 37 38 36 36 34 34 34 33 33 32 31 30
21 21 21 22 24 24 28 30 34 40 40 40 40 40 40 40 39 38 37 37 37 36 35 34 34 33 33 33 32 31 30 31
Wind_Speed
4 3 5 7 10 14 15 14 17 14 10 7 2 2 4 3 1 4 8 12 14 14 14 14 13 11 12 11 14 15 14 16
8 5 8 10 9 8 13 17 15 14 12 8 3 4 4 3 3 3 3 5 11 12 10 9 11 12 13 10 12 13 16 12
11 7 8 10 11 10 10 10 11 15 14 11 5 6 5 7 7 8 8 9 8 10 11 11 10 11 13 17 17 17 14 17
15 12 10 9 10 10 13 14 13 14 6 13 9 5 1 5 9 10 10 12 13 12 11 12 11 11 13 16 16 19 20 18
17 15 13 11 9 9 11 12 11 12 15 11 6 4 4 3 5 8 2 13 11 12 14 12 12 11 13 14 14 15 16 19
19 17 16 13 11 8 6 10 10 10 11 12 10 10 9 10 11 10 4 4 7 9 12 12 12 12 13 14 16 17 16 21
19 17 16 14 9 7 6 6 9 7 5 5 4 4 7 8 10 11 11 10 5 3 6 8 8 9 11 13 13 15 18 21
19 16 13 15 11 9 6 6 6 5 4 3 3 4 5 8 10 8 9 9 10 6 6 7 10 11 12 12 12 14 15 17
18 16 13 10 8 8 5 3 2 3 1 1 3 4 5 8 8 8 8 8 11 11 9 7 8 8 10 11 11 13 15 17
17 15 10 8 8 7 5 1 2 2 1 2 4 6 8 9 9 9 8 8 8 7 11 11 10 9 10 11 11 14 14 18
16 14 14 8 6 4 6 3 4 4 2 3 6 6 7 7 9 11 8 8 5 11 13 14 14 12 12 12 12 11 14 16
15 13 12 9 7 5 4 4 2 4 6 6 7 7 8 7 7 8 8 5 7 6 9 10 12 12 12 13 14 15 18 19
16 12 9 9 7 5 5 4 4 6 5 6 6 7 7 6 6 7 10 9 11 10 8 9 10 11 11 13 15 15 16 19
12 11 10 7 7 2 3 3 3 5 7 9 10 10 8 5 7 9 7 9 7 9 8 9 10 10 12 12 13 15 16 17
15 13 12 9 5 3 3 4 5 6 9 9 11 10 9 9 7 4 5 5 6 6 6 6 8 8 9 10 12 13 13 12
16 13 11 7 4 1 3 5 7 7 7 11 9 9 7 4 2 5 3 3 3 3 4 4 6 7 8 9 9 9 10 10
16 11 8 7 5 1 4 6 7 2 5 8 8 5 5 2 2 2 4 3 2 1 3 5 6 5 9 10 8 7 7 7
12 10 8 6 4 1 2 7 8 6 5 6 5 6 5 4 4 4 3 1 0 4 3 5 4 6 7 8 7 7 6 8
11 10 9 8 6 3 3 4 7 6 5 4 6 6 6 3 3 4 1 4 2 2 2 3 5 5 6 8 9 9 9 11
Wind_Direction
111 103 86 92 64 89 89 90 128 143 153 176 161 224 286 13 338 239 209 217 230 227 217 222 229 238 231 206 200 206 221 207
119 79 77 94 93 113 141 142 151 152 160 161 176 210 224 254 245 273 282 228 230 228 233 227 209 223 231 233 214 220 223 225
136 120 90 85 97 108 110 105 142 172 162 159 156 174 195 193 207 221 213 228 232 228 226 231 227 227 234 229 222 216 216 220
149 141 125 107 94 82 83 78 57 37 84 144 131 145 174 193 208 216 212 212 210 215 223 228 227 224 229 238 232 214 217 220
157 150 140 124 100 80 84 82 79 53 35 68 73 55 71 29 41 172 196 212 224 219 220 220 226 232 238 233 231 236 225 226
157 160 153 136 120 103 73 96 86 56 47 40 28 25 5 352 350 354 336 246 219 234 227 223 219 229 238 238 232 229 231 234
157 159 142 132 140 127 107 82 95 94 72 51 32 9 344 334 333 323 301 282 237 198 287 262 236 229 243 249 238 236 232 234
154 163 167 150 146 145 167 98 81 80 68 57 15 342 319 292 288 301 332 342 340 322 233 241 262 257 247 240 250 251 241 239
168 168 158 151 165 148 126 113 150 112 137 56 341 324 309 310 310 333 330 318 304 317 326 352 350 310 274 254 245 258 265 259
176 157 158 177 160 148 139 119 314 325 342 264 250 266 285 287 297 289 285 302 302 316 343 337 327 322 315 309 284 264 256 262
176 163 175 176 172 160 156 199 258 274 318 325 298 293 281 285 302 300 292 287 348 10 355 346 336 333 321 313 303 295 288 278
169 176 164 176 184 197 170 193 268 305 273 258 252 255 260 267 265 285 294 327 8 9 324 329 316 319 325 317 300 290 277 277
186 174 164 192 190 201 209 194 223 253 286 282 269 260 270 270 274 273 51 26 9 334 324 304 312 317 319 318 313 304 301 291
166 176 181 197 212 189 260 276 312 316 314 327 319 306 297 275 59 54 27 17 327 311 337 0 327 345 333 324 318 313 305 299
185 187 172 202 191 213 265 299 307 348 331 325 325 331 46 58 57 31 26 8 332 348 3 351 358 344 347 344 340 336 328 327
194 189 178 169 195 210 309 347 350 322 343 338 349 52 42 34 33 30 327 308 324 355 10 5 7 27 21 2 347 341 339 348
197 188 177 182 203 233 338 343 314 326 1 16 2 355 349 347 343 282 270 272 314 40 54 54 46 38 1 5 354 5 3 10
181 175 194 162 175 197 35 342 317 31 23 341 305 290 265 248 251 262 265 301 53 88 76 77 61 44 34 45 52 50 40 37
164 180 189 193 188 174 61 15 359 340 336 298 275 240 252 237 246 269 224 91 70 92 95 106 88 72 82 84 83 74 62 52